Location: Newark
(16.3678°N, 77.8722°E)
Time: 18:07:47
(UTC+00:00)

S-56A Canister/Altair - Pass Details

Date: 17 December 2019
Orbit: 634 x 2498 km, 38.9° (Epoch: 22 January)

Event Time Altitude Azimuth Distance (km) Brightness Sun altitude
Rises 02:06:02 0° 252° (WSW) 4,466 11.0 11.3°
Reaches altitude 10° 02:08:45 10° 257° (WSW) 3,718 10.6 11.9°
Maximum altitude 02:18:35 52° 332° (NNW) 2,376 9.9 13.9°
Drops below altitude 10° 02:32:17 10° 45° (NE) 5,053 11.9 16.8°
Sets 02:36:43 0° 50° (NE) 6,150 12.4 17.7°
